This is the latest recevied weather packets stored in our database for station/object KD6VEX-1. If no packets are shown the sender has not sent any weather packets the latest 10 day(s).
| Time | Temp. | Humidity | Pressure | Rain* | Wind** | Luminosity | Snow |
|---|---|---|---|---|---|---|---|
| 1777312915 | 17.78° C | 43% | 1016.5 hPa | 0 mm | - | - | - |
| 1777312615 | 17.78° C | 45% | 1016.4 hPa | 0 mm | - | - | - |
| 1777312315 | 17.22° C | 47% | 1016.4 hPa | 0 mm | - | - | - |
| 1777312015 | 17.22° C | 47% | 1016.4 hPa | 0 mm | - | - | - |
| 1777311715 | 17.22° C | 46% | 1016.4 hPa | 0 mm | - | - | - |
| 1777311415 | 17.78° C | 44% | 1016.4 hPa | 0 mm | - | - | - |
| 1777311115 | 17.78° C | 44% | 1016.3 hPa | 0 mm | - | - | - |
| 1777310815 | 17.78° C | 43% | 1016.3 hPa | 0 mm | - | - | - |
| 1777310515 | 17.78° C | 46% | 1016.3 hPa | 0 mm | - | - | - |
| 1777310215 | 17.22° C | 46% | 1016.2 hPa | 0 mm | - | - | - |
| 1777309915 | 17.22° C | 52% | 1016.1 hPa | 0 mm | - | - | - |
| 1777309615 | 16.67° C | 56% | 1016.2 hPa | 0 mm | - | - | - |
| 1777309315 | 16.11° C | 59% | 1016.3 hPa | 0 mm | - | - | - |
| 1777309015 | 16.11° C | 60% | 1016.3 hPa | 0 mm | - | - | - |
| 1777308715 | 16.11° C | 61% | 1016.4 hPa | 0 mm | - | - | - |
| 1777308415 | 16.11° C | 62% | 1016.4 hPa | 0 mm | - | - | - |
| 1777308115 | 15.56° C | 64% | 1016.5 hPa | 0 mm | - | - | - |
| 1777307815 | 15° C | 64% | 1016.4 hPa | 0 mm | - | - | - |
| 1777307515 | 15° C | 66% | 1016.4 hPa | 0 mm | - | - | - |
| 1777307216 | 14.44° C | 68% | 1016.3 hPa | 0 mm | - | - | - |
| 1777306915 | 14.44° C | 68% | 1016.3 hPa | 0 mm | - | - | - |
| 1777306615 | 13.89° C | 69% | 1016.3 hPa | 0 mm | - | - | - |
| 1777306315 | 13.89° C | 69% | 1016.4 hPa | 0 mm | - | - | - |
| 1777306015 | 13.89° C | 70% | 1016.3 hPa | 0 mm | - | - | - |
| 1777305715 | 13.33° C | 71% | 1016.4 hPa | 0 mm | - | - | - |
* Rain latest hour (hover to see other rain measurements)
** Current wind speed in m/s (hover to see current wind gust speed)